TimeCDT,TemperatureF,Dew PointF,Humidity,Sea Level PressureIn,VisibilityMPH,Wind Direction,Wind SpeedMPH,Gust SpeedMPH,PrecipitationIn,Events,Conditions,WindDirDegrees,DateUTC
12:56 AM,73.0,71.1,93,29.87,10.0,Calm,Calm,-,N/A,,Mostly Cloudy,0,2012-09-30 05:56:00
1:56 AM,73.0,72.0,96,29.86,10.0,Calm,Calm,-,0.00,,Mostly Cloudy,0,2012-09-30 06:56:00
2:56 AM,73.9,73.0,97,29.84,10.0,ENE,3.5,-,0.00,Rain,Light Rain,60,2012-09-30 07:56:00
3:56 AM,75.9,73.9,94,29.82,10.0,ESE,5.8,-,0.00,,Mostly Cloudy,110,2012-09-30 08:56:00
4:56 AM,75.9,73.0,91,29.81,10.0,SE,8.1,-,0.00,Rain,Rain,130,2012-09-30 09:56:00
5:56 AM,75.0,71.1,87,29.81,9.0,ESE,8.1,-,0.05,Rain,Light Rain,120,2012-09-30 10:56:00
6:12 AM,73.4,71.6,94,29.82,2.0,SE,6.9,-,0.13,Rain,Heavy Rain,140,2012-09-30 11:12:00
6:21 AM,73.4,71.6,94,29.82,5.0,Calm,Calm,-,0.15,Rain,Rain,0,2012-09-30 11:21:00
6:56 AM,72.0,71.1,97,29.82,6.0,Calm,Calm,-,0.15,Rain,Light Rain,0,2012-09-30 11:56:00
7:56 AM,73.0,72.0,96,29.81,10.0,East,4.6,-,N/A,,Overcast,100,2012-09-30 12:56:00
8:56 AM,75.9,72.0,87,29.82,10.0,ESE,4.6,-,N/A,,Overcast,110,2012-09-30 13:56:00
9:56 AM,80.1,73.9,81,29.82,10.0,SSE,10.4,-,N/A,,Overcast,160,2012-09-30 14:56:00
10:56 AM,80.1,73.9,81,29.81,10.0,SSE,11.5,-,N/A,,Scattered Clouds,160,2012-09-30 15:56:00
11:56 AM,80.1,73.9,81,29.81,10.0,South,12.7,-,N/A,,Overcast,170,2012-09-30 16:56:00
12:56 PM,82.0,73.9,76,29.78,10.0,South,16.1,-,N/A,,Overcast,180,2012-09-30 17:56:00
1:06 PM,80.6,73.4,79,29.77,6.0,South,15.0,-,N/A,Rain,Light Rain,180,2012-09-30 18:06:00
1:56 PM,75.9,71.1,85,29.75,6.0,SSE,10.4,-,0.00,Rain,Light Rain,160,2012-09-30 18:56:00
2:41 PM,73.4,73.4,100,29.75,1.8,SSW,15.0,23.0,N/A,Rain,Rain,200,2012-09-30 19:41:00
2:56 PM,73.0,72.0,96,29.75,3.0,SSW,10.4,-,0.21,Rain,Rain,210,2012-09-30 19:56:00
3:08 PM,73.4,71.6,94,29.73,10.0,SW,4.6,-,0.01,Rain,Light Rain,220,2012-09-30 20:08:00
3:45 PM,75.2,73.4,94,29.72,10.0,SSE,4.6,-,0.01,Rain,Light Rain,150,2012-09-30 20:45:00
3:56 PM,75.9,73.9,94,29.72,10.0,SE,4.6,-,0.03,,Overcast,140,2012-09-30 20:56:00
4:56 PM,78.1,75.9,93,29.70,10.0,South,11.5,-,N/A,,Overcast,170,2012-09-30 21:56:00
5:32 PM,78.8,73.4,83,29.69,5.0,SSE,17.3,25.3,0.00,Rain,Light Rain,160,2012-09-30 22:32:00
5:56 PM,79.0,77.0,94,29.69,10.0,South,15.0,19.6,0.05,,Overcast,170,2012-09-30 22:56:00
6:50 PM,78.8,75.2,89,29.67,10.0,South,16.1,21.9,N/A,Rain,Light Rain,170,2012-09-30 23:50:00
6:56 PM,79.0,75.0,88,29.68,10.0,South,20.7,27.6,0.00,Rain,Light Rain,190,2012-09-30 23:56:00
7:23 PM,78.8,75.2,89,29.67,10.0,South,15.0,24.2,N/A,,Overcast,190,2012-10-01 00:23:00
7:56 PM,79.0,75.9,90,29.69,10.0,South,15.0,-,0.04,,Overcast,190,2012-10-01 00:56:00
8:27 PM,80.6,75.2,84,29.68,10.0,South,17.3,24.2,N/A,Rain,Light Rain,190,2012-10-01 01:27:00
8:30 PM,80.6,75.2,84,29.68,10.0,South,15.0,-,N/A,Rain,Light Rain,180,2012-10-01 01:30:00
8:37 PM,78.8,75.2,89,29.68,5.0,South,18.4,25.3,N/A,Rain,Heavy Rain,180,2012-10-01 01:37:00
8:56 PM,79.0,75.9,90,29.68,10.0,South,16.1,-,N/A,Rain-Thunderstorm,Light Thunderstorms and Rain,190,2012-10-01 01:56:00
9:08 PM,78.8,75.2,89,29.67,10.0,South,16.1,-,0.00,Rain,Light Rain,190,2012-10-01 02:08:00
9:56 PM,77.0,75.0,94,29.68,9.0,South,12.7,-,0.03,Rain,Light Rain,180,2012-10-01 02:56:00
10:56 PM,79.0,75.9,90,29.66,10.0,South,18.4,-,0.00,,Scattered Clouds,180,2012-10-01 03:56:00
11:56 PM,78.1,77.0,96,29.65,7.0,SW,17.3,25.3,0.00,Rain,Rain,220,2012-10-01 04:56:00